Terminal Aerodrome Forecast
Issued by NWS

Home | Current Version | Previous Version | Text Only | Print | Product List | Glossary On
Versions: 1 2 3 4 5 6 7 8 9 10 11 12 13 14 15 16 17 18 19 20 21 22 23 24 25 26 27 28
000
FTUS46 KPDT 220037 AAA
TAFYKM
TAF AMD
KYKM 220037Z 2201/2224 25008KT 4SM -SHRA BR BKN025 OVC040
     FM220300 26004KT 3SM BR OVC015
     FM221500 30005KT 2SM -SNRA BR OVC015
      TEMPO 2215/2218 3/4SM -SN BR VV008
     FM222000 12003KT 6SM BR VCSH SCT030 BKN100=

USA.gov is the U.S. government's official web portal to all federal, state and local government web resources and services.